TimeEST,TemperatureF,Dew PointF,Humidity,Sea Level PressureIn,VisibilityMPH,Wind Direction,Wind SpeedMPH,Gust SpeedMPH,PrecipitationIn,Events,Conditions,WindDirDegrees,DateUTC
12:54 AM,32.0,27.0,82,30.30,10.0,Calm,Calm,-,N/A,,Mostly Cloudy,0,2012-12-07 05:54:00
1:11 AM,32.0,26.6,80,30.29,10.0,Calm,Calm,-,N/A,,Scattered Clouds,0,2012-12-07 06:11:00
1:27 AM,33.8,26.6,75,30.28,10.0,Calm,Calm,-,N/A,,Mostly Cloudy,0,2012-12-07 06:27:00
1:54 AM,30.9,27.0,85,30.28,10.0,Calm,Calm,-,N/A,,Overcast,0,2012-12-07 06:54:00
2:16 AM,30.2,26.6,86,30.27,10.0,Calm,Calm,-,N/A,,Scattered Clouds,0,2012-12-07 07:16:00
2:54 AM,28.9,25.0,85,30.26,10.0,Calm,Calm,-,N/A,,Clear,0,2012-12-07 07:54:00
3:54 AM,28.0,25.0,88,30.23,10.0,Calm,Calm,-,N/A,,Clear,0,2012-12-07 08:54:00
4:54 AM,28.9,26.1,89,30.22,10.0,Calm,Calm,-,N/A,,Partly Cloudy,0,2012-12-07 09:54:00
5:54 AM,32.0,28.9,88,30.22,10.0,Calm,Calm,-,N/A,,Overcast,0,2012-12-07 10:54:00
6:54 AM,36.0,32.0,86,30.22,10.0,Calm,Calm,-,N/A,,Overcast,0,2012-12-07 11:54:00
7:54 AM,37.9,35.1,89,30.21,10.0,Calm,Calm,-,N/A,,Overcast,0,2012-12-07 12:54:00
8:54 AM,41.0,37.0,86,30.21,10.0,Calm,Calm,-,N/A,,Overcast,0,2012-12-07 13:54:00
9:54 AM,46.0,39.0,76,30.21,10.0,SSE,4.6,-,N/A,,Overcast,160,2012-12-07 14:54:00
10:54 AM,46.9,41.0,80,30.19,10.0,South,4.6,-,0.01,Rain,Light Rain,170,2012-12-07 15:54:00
11:54 AM,46.9,43.0,86,30.17,10.0,SSE,4.6,-,0.01,,Overcast,160,2012-12-07 16:54:00
12:54 PM,46.9,42.1,83,30.14,6.0,SSW,6.9,-,0.00,Rain,Rain,200,2012-12-07 17:54:00
1:54 PM,48.0,43.0,83,30.12,10.0,Calm,Calm,-,0.01,,Overcast,0,2012-12-07 18:54:00
2:23 PM,48.2,42.8,82,30.11,10.0,Calm,Calm,-,N/A,,Overcast,0,2012-12-07 19:23:00
2:39 PM,48.2,42.8,82,30.11,10.0,Calm,Calm,-,N/A,,Overcast,0,2012-12-07 19:39:00
2:54 PM,48.0,43.0,83,30.11,10.0,Calm,Calm,-,N/A,,Overcast,0,2012-12-07 19:54:00
3:17 PM,48.2,42.8,82,30.10,10.0,Calm,Calm,-,N/A,,Overcast,0,2012-12-07 20:17:00
3:54 PM,48.0,43.0,83,30.10,10.0,SSE,3.5,-,N/A,,Overcast,150,2012-12-07 20:54:00
4:54 PM,46.9,44.1,90,30.09,10.0,Calm,Calm,-,N/A,,Overcast,0,2012-12-07 21:54:00
5:54 PM,46.9,44.1,90,30.09,10.0,Calm,Calm,-,N/A,,Overcast,0,2012-12-07 22:54:00
6:54 PM,46.9,43.0,86,30.09,10.0,ESE,3.5,-,N/A,,Overcast,120,2012-12-07 23:54:00
7:54 PM,48.0,44.1,86,30.09,10.0,Calm,Calm,-,N/A,,Overcast,0,2012-12-08 00:54:00
8:10 PM,48.2,44.6,87,30.08,10.0,Calm,Calm,-,N/A,,Overcast,0,2012-12-08 01:10:00
8:38 PM,46.4,44.6,93,30.06,10.0,ESE,3.5,-,0.00,,Overcast,120,2012-12-08 01:38:00
8:54 PM,46.9,44.1,90,30.06,10.0,Calm,Calm,-,0.01,,Overcast,0,2012-12-08 01:54:00
9:54 PM,46.9,46.0,97,30.04,10.0,Calm,Calm,-,0.01,Rain,Light Rain,0,2012-12-08 02:54:00
10:54 PM,46.9,46.0,97,30.04,5.0,Calm,Calm,-,0.09,Rain,Light Rain,0,2012-12-08 03:54:00
11:54 PM,48.9,48.0,97,30.02,3.0,Calm,Calm,-,0.13,Rain,Rain,0,2012-12-08 04:54:00